Tracking 30970 objects as of 3-Jul-2025
HD Live streaming from Space Station
objects crossing your sky now

METEOR M2-2

Track METEOR M2-2 now!
10-day predictions
METEOR M2-2 is classified as:


NORAD ID: 44387
Int'l Code: 2019-038A
Perigee: 817.7 km
Apogee: 818.8 km
Inclination: 98.9 °
Period: 101.1 minutes
Semi major axis: 7189 km
RCS: Unknown
Launch date: July 5, 2019
Source: Commonwealth of Independent States (former USSR) (CIS)
Launch site: VOSTOCHNY COSMODROME (VOSTO)

Uplink (MHz):
Downlink (MHz): 137.100/137.900
Beacon (MHz): 1700.000*
Mode: 72K QPSK AHRPT*
Call sign:
Status:

Your satellite tracking list
Your tracking list is empty




NASA's NSSDC Master Catalog

Two Line Element Set (TLE):
1 44387U 19038A   25183.89228408  .00000074  00000-0  51725-4 0  9992
2 44387  98.8752 161.8040 0000783   8.8646 351.2546 14.24213755311574
Source of the keplerian elements: AFSPC